Weather History for Camp Pendleton, CA

Change the Weather History Date:

Wednesday, April 10, 2013

  Actual Average Record
Temperature  
Mean Temperature 57 °F -  
Max Temperature 77 °F 64 °F 82 °F (2014)
Min Temperature 39 °F 44 °F 33 °F (1999)
Degree Days  
Heating Degree Days 8    
Growing Degree Days 7 (Base 50)    
Moisture  
Dew Point 37 °F    
Average Humidity 46    
Maximum Humidity 70    
Minimum Humidity 20    
Precipitation  
Precipitation 0.00 in - - ()
Sea Level Pressure  
Sea Level Pressure 30.04 in    
Wind  
Wind Speed 3 mph (WSW)    
Max Wind Speed 12 mph    
Max Gust Speed 20 mph    
Visibility 10 miles    
Events      
Averages and records for this station are not official NWS values.
T = Trace of Precipitation, MM = Missing Value Source: NWS Daily Summary

Daily Weather History Graph

Daily Weather History Graph

Search for Another Location

Airport:

Trip Planner

Search our weather history database for the weather conditions in past years. The results will help you decide how hot, cold, wet, or windy it might be!

Date:

Astronomy

Apr. 10, 2013 Rise Set
Actual Time 6:25 AM PDT 7:16 PM PDT
Civil Twilight 5:59 AM PDT 7:41 PM PDT
Nautical Twilight 5:29 AM PDT 8:11 PM PDT
Astronomical Twilight 4:59 AM PDT 8:42 PM PDT
Moon 6:25 AM PDT (4/10) 7:53 PM PDT (4/10)
Length of Visible Light 13h 42m
Length of Day
12h 51m
Waxing Crescent, 0% of the Moon is Illuminated
Apr 10
Waxing Crescent
Apr 18
First Quarter
Apr 25
Full
May 2
Last Quarter
May 9
New

Hourly Weather History & Observations

Time (PDT) Temp. Dew Point Humidity Pressure Visibility Wind Dir Wind Speed Gust Speed Precip Events Conditions
12:54 AM 45.0 °F 33.1 °F 63% 30.03 in 10.0 mi Calm Calm - N/A   Clear
1:54 AM 42.1 °F 32.0 °F 67% 30.03 in 10.0 mi Calm Calm - N/A   Clear
2:54 AM 41.0 °F 32.0 °F 70% 30.02 in 10.0 mi Calm Calm - N/A   Clear
3:54 AM 44.1 °F 32.0 °F 63% 30.01 in 10.0 mi Calm Calm - N/A   Clear
4:54 AM 39.0 °F 30.0 °F 70% 30.03 in 10.0 mi Calm Calm - N/A   Clear
6:54 AM 39.9 °F 30.9 °F 70% 30.06 in 10.0 mi Calm Calm - N/A   Clear
7:54 AM 50.0 °F 34.0 °F 54% 30.09 in 10.0 mi Calm Calm - N/A   Clear
8:54 AM 61.0 °F 32.0 °F 34% 30.09 in 10.0 mi Calm Calm - N/A   Clear
9:54 AM 69.1 °F 39.0 °F 33% 30.08 in 10.0 mi WSW 4.6 mph - N/A   Clear
10:54 AM 72.0 °F 41.0 °F 33% 30.08 in 10.0 mi SW 8.1 mph - N/A   Clear
11:54 AM 75.0 °F 37.0 °F 25% 30.07 in 10.0 mi WSW 8.1 mph - N/A   Clear
12:54 PM 73.9 °F 41.0 °F 30% 30.06 in 10.0 mi SW 9.2 mph 18.4 mph N/A   Clear
1:54 PM 73.9 °F 43.0 °F 33% 30.04 in 10.0 mi West 11.5 mph 19.6 mph N/A   Clear
2:54 PM 75.0 °F 37.0 °F 25% 30.03 in 10.0 mi WSW 8.1 mph - N/A   Clear
3:54 PM 75.9 °F 32.0 °F 20% 30.01 in 10.0 mi WSW 10.4 mph 16.1 mph N/A   Clear
4:54 PM 75.0 °F 37.0 °F 25% 30.00 in 10.0 mi WSW 8.1 mph - N/A   Clear
5:54 PM 73.0 °F 39.9 °F 30% 29.99 in 10.0 mi SW 6.9 mph - N/A   Clear
6:54 PM 66.9 °F 45.0 °F 45% 30.00 in 10.0 mi SSW 5.8 mph - N/A   Clear
7:54 PM 64.9 °F 42.1 °F 43% 30.01 in 10.0 mi SSW 5.8 mph - N/A   Clear
8:54 PM 59.0 °F 41.0 °F 51% 30.03 in 10.0 mi Calm Calm - N/A   Clear
9:54 PM 55.0 °F 41.0 °F 59% 30.05 in 10.0 mi NE 4.6 mph - N/A   Clear
10:54 PM 51.1 °F 37.9 °F 61% 30.04 in 10.0 mi NNE 3.5 mph - N/A   Clear
11:54 PM 48.9 °F 37.0 °F 64% 30.03 in 10.0 mi Calm Calm - N/A   Clear